This is the latest recevied weather packets stored in our database for station/object KD6VEX-1. If no packets are shown the sender has not sent any weather packets the latest 10 day(s).
| Time | Temp. | Humidity | Pressure | Rain* | Wind** | Luminosity | Snow |
|---|---|---|---|---|---|---|---|
| 1777679287 | 22.22° C | 57% | 1012.2 hPa | 0 mm | - | - | - |
| 1777678984 | 22.78° C | 57% | 1012.2 hPa | 0 mm | - | - | - |
| 1777678684 | 22.78° C | 56% | 1012.3 hPa | 0 mm | - | - | - |
| 1777678384 | 22.22° C | 57% | 1012.3 hPa | 0 mm | - | - | - |
| 1777678084 | 22.78° C | 56% | 1012.3 hPa | 0 mm | - | - | - |
| 1777677784 | 22.78° C | 55% | 1012.3 hPa | 0 mm | - | - | - |
| 1777677484 | 23.33° C | 54% | 1012.3 hPa | 0 mm | - | - | - |
| 1777677184 | 23.33° C | 55% | 1012.2 hPa | 0 mm | - | - | - |
| 1777676884 | 23.33° C | 55% | 1012.3 hPa | 0 mm | - | - | - |
| 1777676585 | 23.33° C | 54% | 1012.4 hPa | 0 mm | - | - | - |
| 1777676284 | 23.89° C | 54% | 1012.4 hPa | 0 mm | - | - | - |
| 1777675986 | 23.89° C | 54% | 1012.3 hPa | 0 mm | - | - | - |
| 1777675416 | 23.89° C | 53% | 1012.4 hPa | 0 mm | - | - | - |
| 1777675116 | 24.44° C | 53% | 1012.6 hPa | 0 mm | - | - | - |
| 1777674816 | 24.44° C | 52% | 1012.6 hPa | 0 mm | - | - | - |
| 1777674516 | 25° C | 51% | 1012.7 hPa | 0 mm | - | - | - |
| 1777674218 | 25° C | 51% | 1012.8 hPa | 0 mm | - | - | - |
| 1777673917 | 25.56° C | 51% | 1012.8 hPa | 0 mm | - | - | - |
| 1777673616 | 25° C | 51% | 1012.8 hPa | 0 mm | - | - | - |
| 1777673316 | 25° C | 51% | 1012.9 hPa | 0 mm | - | - | - |
| 1777673016 | 25.56° C | 51% | 1012.9 hPa | 0 mm | - | - | - |
| 1777672718 | 25.56° C | 50% | 1013 hPa | 0 mm | - | - | - |
| 1777672416 | 25.56° C | 49% | 1013.1 hPa | 0 mm | - | - | - |
| 1777672116 | 25.56° C | 51% | 1013.1 hPa | 0 mm | - | - | - |
| 1777671816 | 25.56° C | 50% | 1013.1 hPa | 0 mm | - | - | - |
* Rain latest hour (hover to see other rain measurements)
** Current wind speed in m/s (hover to see current wind gust speed)